TimeCST,TemperatureF,Dew PointF,Humidity,Sea Level PressureIn,VisibilityMPH,Wind Direction,Wind SpeedMPH,Gust SpeedMPH,PrecipitationIn,Events,Conditions,WindDirDegrees,DateUTC
12:15 AM,39.2,28.4,65,30.34,10.0,Calm,Calm,-,N/A,,Clear,0,2012-11-19 06:15:00
12:36 AM,41.0,28.4,61,30.34,10.0,Calm,Calm,-,N/A,,Clear,0,2012-11-19 06:36:00
12:55 AM,39.2,28.4,65,30.34,10.0,Calm,Calm,-,N/A,,Clear,0,2012-11-19 06:55:00
1:15 AM,39.2,28.4,65,30.33,10.0,Calm,Calm,-,N/A,,Clear,0,2012-11-19 07:15:00
1:55 AM,37.4,28.4,70,30.32,10.0,East,4.6,-,N/A,,Clear,90,2012-11-19 07:55:00
2:15 AM,37.4,28.4,70,30.32,10.0,Calm,Calm,-,N/A,,Clear,0,2012-11-19 08:15:00
2:55 AM,39.2,28.4,65,30.32,10.0,Calm,Calm,-,N/A,,Clear,0,2012-11-19 08:55:00
3:15 AM,39.2,28.4,65,30.32,10.0,Calm,Calm,-,N/A,,Clear,0,2012-11-19 09:15:00
3:35 AM,39.2,28.4,65,30.32,10.0,East,3.5,-,N/A,,Clear,80,2012-11-19 09:35:00
3:56 AM,37.4,28.4,70,30.32,10.0,East,4.6,-,N/A,,Clear,100,2012-11-19 09:56:00
4:15 AM,37.4,28.4,70,30.32,10.0,East,4.6,-,N/A,,Clear,80,2012-11-19 10:15:00
4:35 AM,39.2,28.4,65,30.32,10.0,Calm,Calm,-,N/A,,Clear,0,2012-11-19 10:35:00
5:15 AM,35.6,26.6,70,30.32,10.0,Calm,Calm,-,N/A,,Clear,0,2012-11-19 11:15:00
5:35 AM,35.6,26.6,70,30.32,10.0,Calm,Calm,-,N/A,,Clear,0,2012-11-19 11:35:00
6:15 AM,35.6,26.6,70,30.32,10.0,Calm,Calm,-,N/A,,Clear,0,2012-11-19 12:15:00
6:35 AM,37.4,26.6,65,30.32,10.0,Calm,Calm,-,N/A,,Clear,0,2012-11-19 12:35:00
7:35 AM,37.4,28.4,70,30.33,10.0,Calm,Calm,-,N/A,,Clear,0,2012-11-19 13:35:00
7:55 AM,39.2,30.2,70,30.33,10.0,Calm,Calm,-,N/A,,Clear,0,2012-11-19 13:55:00
8:15 AM,41.0,30.2,65,30.34,10.0,ENE,3.5,-,N/A,,Clear,70,2012-11-19 14:15:00
8:16 AM,41.0,30.2,65,30.34,10.0,ENE,3.5,-,N/A,,Clear,70,2012-11-19 14:16:00
8:35 AM,44.6,33.8,66,30.34,10.0,Calm,Calm,-,N/A,,Clear,0,2012-11-19 14:35:00
8:55 AM,48.2,35.6,62,30.34,10.0,Calm,Calm,-,N/A,,Clear,0,2012-11-19 14:55:00
9:35 AM,55.4,35.6,47,30.34,10.0,Calm,Calm,-,N/A,,Clear,0,2012-11-19 15:35:00
9:55 AM,57.2,35.6,44,30.34,10.0,Calm,Calm,-,N/A,,Clear,0,2012-11-19 15:55:00
10:35 AM,60.8,37.4,42,30.33,10.0,Calm,Calm,-,N/A,,Clear,0,2012-11-19 16:35:00
10:55 AM,60.8,37.4,42,30.32,10.0,NW,5.8,-,N/A,,Clear,320,2012-11-19 16:55:00
11:35 AM,62.6,37.4,39,30.31,10.0,NW,5.8,-,N/A,,Clear,310,2012-11-19 17:35:00
11:55 AM,62.6,37.4,39,30.29,10.0,NNW,5.8,-,N/A,,Clear,330,2012-11-19 17:55:00
12:15 PM,62.6,37.4,39,30.28,10.0,NW,4.6,-,N/A,,Clear,310,2012-11-19 18:15:00
12:36 PM,62.6,37.4,39,30.27,10.0,WNW,5.8,-,N/A,,Clear,300,2012-11-19 18:36:00
12:55 PM,62.6,37.4,39,30.27,10.0,NNW,4.6,-,N/A,,Clear,330,2012-11-19 18:55:00
1:15 PM,64.4,37.4,37,30.26,10.0,NW,3.5,-,N/A,,Clear,320,2012-11-19 19:15:00
1:55 PM,64.4,37.4,37,30.23,10.0,WNW,4.6,-,N/A,,Clear,300,2012-11-19 19:55:00
2:15 PM,64.4,37.4,37,30.22,10.0,WNW,4.6,-,N/A,,Partly Cloudy,290,2012-11-19 20:15:00
2:55 PM,62.6,37.4,39,30.21,10.0,NW,3.5,-,N/A,,Mostly Cloudy,310,2012-11-19 20:55:00
3:15 PM,64.4,37.4,37,30.21,10.0,Calm,Calm,-,N/A,,Scattered Clouds,0,2012-11-19 21:15:00
3:55 PM,62.6,37.4,39,30.22,10.0,West,4.6,-,N/A,,Mostly Cloudy,280,2012-11-19 21:55:00
4:15 PM,60.8,37.4,42,30.22,10.0,WNW,3.5,-,N/A,,Scattered Clouds,290,2012-11-19 22:15:00
4:35 PM,59.0,37.4,45,30.22,10.0,Calm,Calm,-,N/A,,Clear,0,2012-11-19 22:35:00
4:55 PM,57.2,37.4,48,30.21,10.0,Calm,Calm,-,N/A,,Clear,0,2012-11-19 22:55:00
5:15 PM,57.2,37.4,48,30.22,10.0,Calm,Calm,-,N/A,,Partly Cloudy,0,2012-11-19 23:15:00
5:36 PM,57.2,37.4,48,30.23,10.0,WNW,3.5,-,N/A,,Mostly Cloudy,290,2012-11-19 23:36:00
5:55 PM,59.0,37.4,45,30.23,10.0,WNW,3.5,-,N/A,,Overcast,300,2012-11-19 23:55:00
6:15 PM,57.2,37.4,48,30.22,10.0,Calm,Calm,-,N/A,,Overcast,0,2012-11-20 00:15:00
6:55 PM,55.4,37.4,51,30.22,10.0,Calm,Calm,-,N/A,,Mostly Cloudy,0,2012-11-20 00:55:00
7:15 PM,53.6,37.4,54,30.22,10.0,Calm,Calm,-,N/A,,Overcast,0,2012-11-20 01:15:00
7:55 PM,53.6,37.4,54,30.21,10.0,Calm,Calm,-,N/A,,Overcast,0,2012-11-20 01:55:00
8:15 PM,53.6,37.4,54,30.22,10.0,Calm,Calm,-,N/A,,Overcast,0,2012-11-20 02:15:00
8:55 PM,53.6,39.2,58,30.23,10.0,Calm,Calm,-,N/A,,Overcast,0,2012-11-20 02:55:00
9:15 PM,53.6,39.2,58,30.22,10.0,Calm,Calm,-,N/A,,Overcast,0,2012-11-20 03:15:00
9:35 PM,53.6,39.2,58,30.20,10.0,South,5.8,-,N/A,,Overcast,170,2012-11-20 03:35:00
9:56 PM,51.8,39.2,62,30.20,10.0,South,3.5,-,N/A,,Overcast,190,2012-11-20 03:56:00
10:15 PM,51.8,39.2,62,30.20,10.0,Calm,Calm,-,N/A,,Overcast,0,2012-11-20 04:15:00
10:35 PM,51.8,37.4,58,30.19,10.0,Calm,Calm,-,N/A,,Overcast,0,2012-11-20 04:35:00
11:15 PM,51.8,39.2,62,30.19,10.0,Calm,Calm,-,N/A,,Overcast,0,2012-11-20 05:15:00
11:35 PM,51.8,37.4,58,30.19,10.0,Calm,Calm,-,N/A,,Mostly Cloudy,0,2012-11-20 05:35:00
11:55 PM,50.0,37.4,62,30.18,10.0,South,4.6,-,N/A,,Scattered Clouds,170,2012-11-20 05:55:00